This is the latest recevied weather packets stored in our database for station/object K4M9. If no packets are shown the sender has not sent any weather packets the latest 1 day(s).
| Time | Temp. | Humidity | Pressure | Rain* | Wind** | Luminosity | Snow |
|---|---|---|---|---|---|---|---|
| 1778095404 | 15.56° C | 59% | 1015.9 hPa | - | - | - | - |
| 1778094805 | 15° C | 62% | 1016.3 hPa | - | - | - | - |
| 1778091207 | 15° C | 62% | 1015.9 hPa | - | - | - | - |
| 1778088208 | 15° C | 62% | 1016.6 hPa | - | - | - | - |
| 1778085806 | 12.78° C | 71% | 1017.3 hPa | - | - | - | - |
| 1778083530 | 12.78° C | 66% | 1016.3 hPa | - | - | - | - |
| 1778082812 | 12.78° C | 71% | 1016.9 hPa | - | - | - | - |
| 1778079205 | 10.56° C | 87% | 1016.6 hPa | - | - | - | - |
| 1778078607 | 10.56° C | 87% | 1016.6 hPa | - | - | - | - |
| 1778076204 | 10.56° C | 87% | 1016.6 hPa | - | - | - | - |
| 1778074401 | 10° C | 93% | 1015.9 hPa | - | - | - | - |
| 1778073803 | 10° C | 93% | 1015.9 hPa | - | - | - | - |
| 1778073206 | 10° C | 93% | 1015.2 hPa | - | - | - | - |
| 1778072607 | 10° C | 93% | 1015.2 hPa | - | - | - | - |
| 1778072004 | 10° C | 93% | 1014.9 hPa | - | - | - | - |
| 1778070206 | 10° C | 93% | 1014.2 hPa | - | - | - | - |
| 1778068405 | 8.89° C | 100% | 1014.2 hPa | - | - | - | - |
| 1778067203 | 8.89° C | 100% | 1013.2 hPa | - | - | - | - |
| 1778066608 | 8.89° C | 100% | 1013.2 hPa | - | - | - | - |
| 1778066007 | 8.89° C | 100% | 1012.9 hPa | - | - | - | - |
| 1778065404 | 8.89° C | 100% | 1012.9 hPa | - | - | - | - |
| 1778064804 | 8.89° C | 100% | 1012.9 hPa | - | - | - | - |
| 1778064207 | 8.89° C | 100% | 1012.9 hPa | - | - | - | - |
| 1778062405 | 8.89° C | 100% | 1013.5 hPa | - | - | - | - |
| 1778061806 | 8.89° C | 100% | 1013.5 hPa | - | - | - | - |
* Rain since midnight (hover to see other rain measurements)
** Current wind speed in m/s (hover to see current wind gust speed)